Temperature
13 13 12 12 12 11 11 11 11 11 11 11 11 11 11 11 12 12 12 12 12 12 12 12 12 13 13 13 14 14 15 15 15 16 16 16 16 16 16 15 15 15 15
12 12 12 11 11 11 11 10 10 10 10 10 10 10 11 11 11 11 11 11 11 11 11 11 12 12 12 13 13 13 14 14 14 15 15 15 15 15 15 15 15 15 15
12 11 11 11 10 10 10 10 10 10 10 10 10 10 10 10 10 11 11 11 11 11 11 11 11 11 11 12 12 12 13 13 14 14 14 14 15 15 15 14 14 14 14
11 11 10 10 10 10 9 9 9 9 9 9 9 9 9 10 10 10 10 10 11 11 11 11 11 11 11 11 11 12 12 12 13 13 14 14 14 14 14 14 14 13 13
10 10 10 9 9 9 9 9 9 9 9 9 9 9 9 9 9 10 10 10 10 10 11 11 11 11 11 11 11 11 11 11 12 12 13 13 13 13 13 14 13 13 12
10 10 9 9 9 9 8 8 8 8 8 8 8 8 8 8 9 9 9 9 10 10 10 10 10 11 11 11 11 11 11 11 11 11 12 12 13 13 13 13 13 12 12
9 9 9 8 8 8 8 8 8 8 8 8 8 8 8 8 8 8 9 9 9 9 10 10 10 10 11 11 11 10 11 11 11 11 11 12 12 13 13 13 13 13 13
9 9 8 8 8 8 8 8 8 7 7 7 7 7 7 7 8 8 8 8 9 9 9 10 10 10 10 10 10 10 10 11 11 11 11 12 12 12 12 13 13 12 12
9 8 8 8 7 7 7 7 7 7 7 7 7 7 7 7 7 7 8 8 8 9 9 9 9 10 10 10 10 10 10 10 10 11 11 11 11 12 12 12 12 12 12
8 8 7 7 7 7 7 7 7 7 7 7 7 7 7 7 7 7 7 7 8 8 9 9 9 9 10 10 10 10 10 10 10 10 11 11 11 11 11 12 12 12 12
8 7 7 7 7 7 7 8 7 7 7 7 7 7 7 7 7 7 7 7 7 8 8 9 9 9 10 10 10 10 10 10 10 10 10 10 11 11 11 11 12 12 12
8 7 7 7 7 7 8 8 8 7 7 7 7 7 7 7 7 7 7 7 7 8 8 8 9 9 9 10 10 10 10 10 10 10 10 10 11 11 11 11 11 11 12
8 8 7 8 8 8 8 8 8 7 7 7 7 7 7 7 7 7 7 7 7 7 8 8 8 9 9 9 9 10 9 9 9 9 10 10 11 11 11 11 11 11 11
7 7 7 7 8 8 8 8 7 7 7 7 7 7 7 7 7 7 7 7 7 7 7 8 8 9 9 9 9 9 9 9 9 9 10 10 10 11 11 11 11 11 10
7 7 7 8 8 8 8 8 8 7 7 7 6 6 6 7 7 7 7 7 7 7 7 7 8 8 9 9 9 9 9 9 9 9 9 10 10 10 10 10 11 11 10
7 7 7 8 8 8 8 8 8 7 7 7 7 6 6 6 7 7 7 7 7 7 7 7 8 8 8 9 9 9 9 9 9 9 9 10 10 10 10 10 10 10 10
7 7 7 8 8 8 8 8 8 8 7 7 7 7 6 6 6 7 7 7 7 7 7 8 8 8 9 9 9 9 9 9 9 9 9 9 10 10 9 9 9 10 10
8 8 8 8 8 8 8 8 8 8 8 7 7 7 7 7 6 7 7 7 7 7 8 8 8 9 9 9 9 9 9 9 9 9 9 9 9 9 9 9 9 9 9
8 8 8 8 8 9 9 9 8 8 8 8 7 7 7 7 7 7 7 7 7 8 8 8 8 9 9 9 9 9 9 9 9 9 9 9 9 9 9 9 9 9 9
8 8 8 9 9 9 9 9 9 8 8 8 8 7 7 7 7 7 7 7 8 8 8 8 8 9 9 9 9 9 9 9 9 9 9 9 9 9 9 9 9 9 9
8 9 9 9 9 9 9 9 9 9 8 8 8 8 8 8 7 8 8 8 8 8 8 8 8 8 8 8 8 9 8 8 8 8 8 8 8 8 8 9 9 9 9
9 9 9 9 9 9 9 9 9 9 9 9 8 8 8 8 8 8 8 8 8 8 8 8 8 8 8 8 8 8 8 8 8 8 8 8 8 8 8 8 8 9 9
9 9 9 9 10 10 10 9 9 9 9 9 9 9 9 8 8 8 8 8 8 8 8 8 8 8 8 8 8 8 8 8 8 8 8 8 8 8 8 9 9 9 9
9 9 10 10 10 10 10 10 10 10 9 9 9 9 9 9 9 8 8 8 8 8 8 8 8 8 8 8 8 8 8 8 8 8 8 9 8 9 9 9 9 10 10
9 10 10 10 10 10 10 10 10 10 10 10 10 10 9 9 9 9 9 9 8 8 8 8 8 8 8 8 8 8 8 8 8 9 9 9 9 9 10 10 10 10 11
9 10 10 10 10 10 10 10 10 10 10 10 10 10 10 10 10 9 9 9 9 9 8 8 8 8 8 8 8 8 8 8 9 9 9 9 10 10 10 10 11 11 11
Wind_Speed
8 8 8 8 8 8 8 9 9 9 9 9 9 10 10 10 9 9 9 8 8 8 7 7 7 6 4 3 3 3 2 2 3 3 2 5 6 7 6 8 10 9 7
8 8 8 8 9 10 11 9 9 10 10 10 10 10 11 11 10 10 11 11 10 9 9 8 8 7 7 5 4 4 3 2 3 4 3 4 6 7 7 7 6 8 9
10 9 9 10 10 10 10 10 10 10 10 10 10 11 11 11 11 11 11 11 10 10 9 9 8 8 7 6 6 5 4 4 2 4 4 3 4 7 7 6 6 6 8
11 11 10 10 10 11 10 10 11 11 11 11 10 11 11 11 12 12 12 12 11 10 10 9 9 9 8 7 7 7 5 5 4 5 5 4 4 6 6 7 6 5 5
11 12 12 11 10 11 10 11 11 11 14 11 10 10 10 11 12 12 11 14 12 11 11 10 10 11 12 9 7 7 7 6 5 5 6 5 5 6 7 6 7 6 5
11 13 12 12 12 11 11 11 11 11 11 11 11 11 12 13 12 9 8 9 9 10 11 11 11 10 12 13 12 10 9 8 7 6 6 6 7 6 6 7 7 8 5
12 13 13 13 13 13 14 14 13 12 12 12 12 12 12 12 14 13 10 7 9 9 10 9 12 13 14 11 12 13 11 11 10 7 7 7 6 8 7 8 9 9 5
13 13 13 14 15 14 14 14 13 11 11 11 12 12 12 13 14 14 13 10 10 10 10 10 10 9 9 10 11 11 10 10 11 9 7 7 6 6 8 7 7 6 7
14 14 15 15 15 15 15 14 13 12 12 12 12 12 12 11 12 13 12 8 8 10 11 11 11 11 12 11 9 9 9 8 12 13 12 9 9 8 7 7 8 10 7
15 15 15 15 15 16 15 13 12 11 11 11 11 11 11 10 11 13 13 8 8 9 9 9 12 12 13 13 9 8 8 7 7 8 9 9 9 9 11 10 10 11 8
15 15 15 15 15 15 13 11 11 11 11 10 11 10 9 10 10 13 14 9 8 7 7 7 8 12 13 15 11 7 7 5 5 6 7 7 7 8 9 10 9 10 10
15 16 16 15 15 14 12 11 11 10 10 10 9 8 7 7 8 11 14 14 9 6 5 5 5 11 13 15 11 8 8 5 4 5 6 7 7 8 8 9 9 8 6
15 16 15 16 13 12 11 11 10 8 7 7 7 6 5 4 4 8 12 13 10 6 3 2 4 9 11 10 11 10 9 5 5 6 6 7 7 8 8 7 7 6 6
15 15 14 14 13 11 9 8 8 7 7 7 6 5 5 3 1 3 5 7 8 7 5 4 7 9 7 7 8 8 7 6 6 6 6 5 5 6 7 7 7 8 7
15 14 14 13 11 10 9 7 6 4 3 5 6 6 5 3 3 3 1 3 5 7 7 6 5 5 6 6 7 8 8 8 8 6 6 6 6 7 7 8 8 9 7
14 13 11 11 9 9 8 7 4 3 1 1 3 4 3 3 4 3 3 3 3 4 5 6 7 7 8 8 8 8 8 8 8 7 6 7 7 8 8 8 9 9 10
14 13 11 10 9 9 8 7 6 2 2 1 2 3 3 3 3 3 4 3 3 3 4 6 6 7 7 7 7 7 8 7 7 7 7 7 8 8 9 10 10 10 9
14 12 11 9 9 8 8 7 6 5 2 1 2 1 1 1 1 1 1 1 3 4 6 6 6 6 7 6 6 6 6 6 7 7 7 8 8 9 10 11 11 10 10
12 10 10 10 9 8 7 6 5 5 4 2 1 3 3 2 2 1 2 4 5 5 6 5 5 5 5 5 5 5 5 6 7 7 7 8 9 9 10 11 10 13 11
10 12 11 10 8 7 7 6 5 5 4 3 1 1 2 3 3 4 5 5 4 3 3 3 3 3 3 3 4 4 5 6 7 7 7 8 9 9 10 12 12 12 10
10 11 12 9 6 6 6 6 5 5 4 3 2 2 2 2 2 1 2 2 3 2 2 1 1 2 2 3 3 5 6 6 6 7 7 9 10 10 9 10 11 11 10
10 10 9 8 7 6 6 6 4 4 4 3 1 1 3 3 1 1 1 1 1 1 1 1 2 2 1 2 4 5 6 6 7 8 8 9 10 10 10 10 11 10 10
10 10 9 7 6 6 5 5 4 3 3 3 2 1 1 2 1 0 0 0 0 1 1 1 1 2 2 1 2 4 6 7 7 8 9 10 10 11 10 10 12 11 10
10 9 8 7 6 6 5 5 5 5 4 3 2 1 1 1 1 1 1 1 1 1 2 1 2 4 4 3 3 4 5 6 7 8 10 10 11 10 9 10 10 11 11
8 8 7 7 6 6 6 5 4 4 3 2 2 1 1 1 1 2 2 2 2 3 3 3 3 4 6 6 5 6 7 7 5 6 8 8 10 10 10 10 10 10 10
8 8 6 5 6 6 6 6 5 5 4 3 2 1 1 1 1 2 3 3 3 3 3 3 5 6 6 5 6 8 8 6 6 5 5 7 8 8 9 9 12 10 11
Wind_Direction
316 308 304 299 296 294 292 290 289 287 288 286 279 273 266 258 247 233 228 224 220 221 221 218 223 223 225 230 251 268 274 254 240 239 177 138 128 126 135 132 140 129 108
318 316 311 308 305 301 298 297 298 296 291 288 282 276 271 264 251 241 235 232 222 221 220 219 217 218 215 222 222 233 242 238 222 227 202 166 146 142 148 146 140 126 114
319 317 313 310 307 302 299 296 293 290 287 283 280 278 274 270 264 253 242 235 228 222 220 219 215 212 215 214 212 218 221 227 211 208 216 198 168 154 149 142 126 124 123
319 315 308 306 303 301 300 299 297 294 289 283 277 274 272 269 265 260 253 242 233 227 221 221 218 212 211 209 214 212 210 212 217 214 208 197 184 166 159 152 145 139 133
313 309 308 307 307 305 302 299 296 293 290 288 286 281 274 268 261 253 251 250 239 231 225 221 221 217 212 203 212 205 201 204 212 217 212 201 191 177 180 172 160 145 125
315 313 312 311 308 303 300 296 294 292 289 285 280 277 273 270 270 264 255 263 257 241 230 222 224 223 212 202 206 203 198 202 207 213 217 209 201 192 188 174 161 156 154
316 315 314 313 309 307 306 303 299 297 292 284 277 273 267 263 260 254 242 248 258 249 236 224 227 224 203 198 203 206 209 215 211 209 214 215 206 195 188 182 177 176 157
320 319 317 314 311 309 304 301 299 296 290 284 278 272 267 262 253 244 235 238 245 244 238 225 220 233 225 202 201 204 207 212 210 214 222 219 218 201 192 188 178 150 124
322 321 317 314 311 307 304 303 301 296 291 284 278 271 265 261 247 238 229 235 237 240 235 228 218 216 220 203 201 204 209 215 215 213 209 209 197 186 179 167 166 156 148
323 319 316 312 308 305 301 300 299 294 290 288 281 271 264 258 242 228 220 229 232 235 232 230 222 214 208 198 200 204 211 217 222 213 206 207 200 192 188 186 179 169 155
321 315 312 310 306 300 301 303 301 298 294 289 283 274 263 253 241 223 212 223 226 230 230 222 218 204 201 198 201 205 209 214 218 213 201 200 200 195 192 192 191 180 170
320 316 312 311 308 309 309 307 305 302 299 296 290 284 269 251 239 221 208 215 229 238 231 223 206 189 193 193 194 190 174 183 216 212 203 200 200 197 193 189 189 187 177
320 317 313 312 310 308 308 310 311 310 308 307 302 297 288 263 232 214 205 209 216 232 235 195 178 174 180 192 203 185 175 197 218 222 216 204 199 193 181 174 167 154 138
320 318 316 315 313 314 314 313 313 320 323 323 324 322 315 306 272 202 193 199 204 218 220 188 171 168 185 198 186 190 202 215 215 219 221 202 185 178 172 163 157 146 134
321 320 320 317 314 318 320 323 324 343 334 318 327 332 334 337 355 355 201 188 195 198 186 179 182 179 196 206 199 193 201 209 217 218 208 193 184 175 168 160 156 153 152
322 322 320 318 319 322 323 325 339 327 322 321 324 323 342 18 4 40 90 108 119 139 177 194 199 201 206 210 210 203 202 206 205 201 197 188 183 176 167 163 162 164 162
320 318 317 316 319 323 324 327 324 298 210 247 325 339 350 7 27 67 94 103 111 141 197 208 209 214 221 221 215 209 205 202 195 189 188 185 178 173 169 167 168 166 162
319 315 316 317 319 321 321 324 328 330 319 213 185 246 299 346 17 66 121 162 195 208 224 223 217 218 223 223 217 210 204 193 185 181 182 180 173 172 172 170 170 165 160
319 320 322 318 316 320 320 330 337 340 340 344 144 155 194 199 204 217 215 241 237 217 220 227 225 222 217 216 212 202 194 184 177 175 179 178 172 170 170 167 164 161 159
320 315 313 314 317 323 330 338 341 339 340 344 350 97 164 204 217 197 212 236 256 256 233 215 211 214 213 206 194 192 186 177 175 176 176 174 168 167 168 163 160 161 163
324 321 317 316 324 332 338 338 339 340 339 338 1 48 349 300 294 258 217 227 245 244 240 207 183 201 206 196 195 190 181 175 173 167 164 165 163 162 162 159 159 161 162
319 318 322 328 334 340 336 329 337 340 344 350 345 169 243 272 289 294 262 247 239 192 187 183 197 203 209 197 183 174 169 163 159 158 158 155 157 157 155 157 161 164 164
319 323 326 329 336 330 326 342 342 340 346 344 347 359 289 297 4 63 191 163 175 96 120 150 163 156 136 117 132 153 156 153 154 154 151 152 155 157 160 164 164 162 165
320 327 333 339 348 351 355 352 344 349 1 349 340 336 316 330 23 79 74 73 88 102 124 129 123 121 112 105 106 118 127 132 138 147 149 149 152 157 162 161 160 164 165
326 334 343 346 348 349 350 352 355 352 355 341 330 324 295 305 67 106 112 104 95 100 107 109 107 112 115 113 109 103 96 99 113 135 144 148 154 159 161 160 162 164 163
333 340 344 345 345 343 345 349 354 356 354 354 353 358 25 103 124 125 132 130 114 105 104 107 116 121 124 119 114 111 112 114 120 136 151 156 156 159 160 159 158 159 155
Height
1475 1473 1470 1467 1465 1463 1460 1458 1457 1455 1453 1452 1451 1451 1451 1451 1452 1452 1452 1453 1453 1454 1455 1456 1456 1458 1459 1461 1463 1466 1469 1472 1474 1478 1481 1483 1486 1487 1490 1492 1493 1494 1495
1471 1468 1465 1462 1459 1456 1454 1452 1450 1448 1446 1445 1444 1443 1443 1443 1444 1445 1445 1447 1447 1448 1449 1450 1451 1453 1454 1455 1457 1460 1463 1466 1470 1473 1476 1479 1482 1484 1487 1489 1490 1491 1492
1466 1463 1460 1456 1453 1450 1448 1445 1443 1441 1439 1437 1436 1435 1435 1435 1436 1437 1438 1439 1441 1442 1443 1445 1446 1447 1449 1450 1452 1454 1457 1460 1464 1468 1470 1473 1477 1480 1483 1486 1487 1488 1490
1462 1458 1454 1451 1448 1445 1442 1439 1436 1434 1432 1430 1428 1427 1426 1426 1427 1428 1429 1431 1433 1435 1437 1438 1440 1442 1444 1445 1447 1449 1451 1454 1458 1462 1465 1468 1472 1475 1479 1481 1484 1486 1488
1456 1453 1449 1446 1442 1439 1436 1432 1429 1427 1424 1422 1420 1419 1418 1418 1418 1419 1420 1423 1425 1427 1429 1432 1434 1436 1438 1440 1442 1444 1446 1448 1451 1455 1459 1462 1466 1469 1473 1477 1480 1483 1485
1452 1448 1444 1440 1436 1432 1429 1426 1423 1419 1417 1414 1412 1410 1409 1409 1410 1411 1412 1414 1416 1419 1422 1424 1428 1430 1433 1435 1437 1439 1442 1444 1446 1449 1453 1456 1459 1464 1468 1472 1476 1479 1481
1447 1443 1438 1434 1430 1426 1423 1419 1415 1412 1409 1406 1403 1402 1400 1400 1401 1402 1403 1405 1408 1411 1414 1418 1421 1425 1427 1429 1432 1434 1436 1439 1442 1444 1447 1450 1454 1459 1463 1467 1471 1474 1477
1442 1438 1433 1429 1424 1420 1416 1412 1408 1405 1401 1398 1395 1393 1392 1391 1392 1393 1394 1397 1400 1403 1407 1411 1414 1418 1422 1424 1427 1429 1431 1433 1436 1439 1442 1446 1450 1454 1459 1463 1466 1471 1474
1438 1433 1428 1423 1418 1414 1410 1406 1402 1398 1394 1391 1388 1385 1384 1383 1384 1385 1386 1388 1391 1395 1400 1404 1408 1412 1416 1420 1422 1424 1427 1430 1432 1435 1439 1442 1445 1449 1453 1457 1461 1465 1468
1433 1428 1423 1418 1413 1409 1404 1400 1396 1392 1388 1384 1381 1379 1377 1376 1376 1378 1379 1382 1385 1389 1394 1398 1402 1406 1410 1414 1417 1420 1423 1425 1428 1431 1434 1437 1441 1444 1448 1452 1456 1459 1463
1429 1423 1418 1413 1409 1404 1400 1395 1391 1387 1383 1379 1375 1373 1371 1370 1371 1372 1374 1376 1380 1384 1388 1392 1397 1401 1405 1409 1413 1416 1419 1422 1424 1427 1429 1433 1436 1440 1443 1447 1451 1455 1458
1424 1419 1414 1409 1404 1400 1396 1391 1387 1382 1378 1374 1371 1368 1367 1366 1366 1367 1369 1372 1376 1380 1383 1388 1392 1396 1400 1404 1408 1411 1415 1418 1420 1423 1425 1428 1431 1435 1438 1442 1447 1451 1456
1420 1415 1410 1405 1400 1396 1392 1387 1383 1379 1375 1371 1368 1366 1363 1363 1362 1363 1365 1368 1372 1376 1380 1384 1388 1392 1396 1400 1404 1407 1410 1413 1416 1418 1421 1424 1427 1430 1434 1438 1443 1448 1452
1416 1411 1406 1402 1397 1393 1389 1385 1381 1377 1373 1369 1366 1364 1362 1361 1361 1361 1362 1365 1368 1372 1377 1381 1385 1388 1392 1396 1400 1403 1406 1409 1411 1414 1417 1420 1423 1426 1429 1434 1438 1442 1447
1413 1408 1403 1399 1395 1391 1387 1383 1379 1375 1372 1368 1365 1363 1361 1360 1360 1360 1361 1363 1366 1370 1374 1379 1382 1385 1389 1392 1395 1398 1401 1403 1406 1409 1412 1415 1418 1421 1425 1429 1433 1438 1442
1411 1406 1401 1397 1393 1389 1385 1381 1377 1374 1371 1367 1365 1362 1360 1360 1359 1360 1361 1363 1366 1369 1373 1376 1379 1382 1385 1389 1391 1394 1396 1399 1401 1404 1407 1410 1413 1417 1420 1425 1429 1434 1439
1409 1405 1400 1396 1392 1389 1384 1380 1377 1374 1371 1367 1365 1362 1361 1360 1359 1360 1361 1363 1366 1369 1371 1374 1377 1380 1382 1385 1388 1390 1392 1394 1397 1399 1402 1405 1409 1412 1416 1420 1425 1430 1435
1408 1403 1400 1396 1392 1388 1384 1381 1377 1374 1371 1368 1366 1363 1361 1360 1360 1360 1362 1364 1366 1368 1370 1372 1375 1377 1379 1381 1383 1385 1387 1389 1392 1394 1398 1401 1404 1408 1412 1417 1422 1426 1432
1406 1403 1399 1395 1391 1388 1384 1381 1378 1374 1372 1369 1367 1365 1363 1362 1362 1362 1362 1364 1366 1368 1369 1371 1372 1374 1375 1377 1379 1380 1382 1384 1387 1389 1393 1397 1400 1404 1408 1413 1419 1424 1430
1406 1402 1398 1394 1391 1388 1385 1381 1378 1375 1372 1370 1368 1366 1365 1363 1363 1363 1363 1364 1365 1366 1368 1369 1370 1371 1372 1373 1374 1376 1378 1380 1382 1385 1389 1392 1396 1400 1405 1411 1416 1422 1428
1405 1401 1398 1394 1391 1388 1385 1381 1378 1375 1373 1370 1369 1367 1366 1365 1364 1364 1364 1364 1364 1365 1366 1367 1367 1368 1369 1369 1370 1372 1373 1375 1378 1381 1385 1389 1393 1398 1404 1409 1415 1421 1427
1405 1401 1398 1395 1392 1389 1386 1382 1379 1376 1373 1371 1369 1368 1366 1365 1365 1364 1364 1363 1363 1363 1364 1364 1365 1365 1366 1366 1367 1368 1370 1372 1375 1378 1382 1387 1392 1397 1403 1409 1415 1421 1427
1405 1402 1399 1396 1393 1390 1386 1383 1380 1377 1374 1372 1370 1369 1367 1366 1365 1364 1364 1363 1363 1363 1363 1363 1363 1363 1364 1364 1365 1366 1368 1371 1374 1377 1381 1386 1392 1398 1404 1410 1416 1422 1428
1405 1402 1400 1397 1394 1391 1388 1385 1382 1379 1376 1374 1372 1370 1369 1367 1366 1366 1365 1364 1363 1363 1363 1363 1363 1364 1364 1364 1365 1367 1369 1372 1375 1379 1384 1389 1394 1400 1406 1412 1418 1423 1429
1406 1403 1401 1398 1396 1393 1390 1387 1384 1381 1378 1376 1374 1372 1371 1369 1369 1368 1367 1366 1366 1365 1365 1365 1365 1366 1367 1367 1368 1370 1372 1376 1379 1383 1388 1393 1398 1403 1408 1414 1420 1425 1431
1406 1404 1402 1399 1397 1395 1392 1389 1386 1383 1381 1379 1377 1375 1373 1372 1372 1371 1370 1369 1369 1369 1368 1368 1369 1370 1371 1372 1373 1375 1378 1381 1384 1388 1392 1397 1402 1407 1412 1417 1422 1427 1432